DC1MBB-9 Weather Reports


Display with metric or nautical units.
time (UTC)temp
F
wind
direction
speed
MPH
gust
MPH
rain 1hr
in
rain 24hr
in
rain mn
in
humidity
%
barometer
mb
20260905195908 73 0 0.0 0.0 0.00 0.00 0.00 61 967.0
20260905195308 73 0 0.0 0.0 0.00 0.00 0.00 60 967.0
20260905194707 73 0 0.0 0.0 0.00 0.00 0.00 61 967.0
20260905194106 74 0 0.0 0.0 0.00 0.00 0.00 60 967.0
20260905193505 74 0 0.0 0.0 0.00 0.00 0.00 59 967.0
20260905192904 73 0 0.0 0.0 0.00 0.00 0.00 59 967.0
20260905192306 74 0 0.0 0.0 0.00 0.00 0.00 59 967.0
20260905191703 74 0 0.0 0.0 0.00 0.00 0.00 58 967.0
20260905191102 74 0 0.0 0.0 0.00 0.00 0.00 58 967.0
20260905190501 73 0 0.0 0.0 0.00 0.00 0.00 60 967.0
20260905185900 75 0 0.0 0.0 0.00 0.00 0.00 58 967.0
20260905185300 75 0 0.0 0.0 0.00 0.00 0.00 61 967.0
20260905184659 75 0 0.0 0.0 0.00 0.00 0.00 64 966.0
20260905184058 75 0 0.0 0.0 0.00 0.00 0.00 64 966.0
20260905183457 74 0 0.0 0.0 0.00 0.00 0.00 65 966.0
20260905182857 74 0 0.0 0.0 0.00 0.00 0.00 66 966.0
20260905182256 74 0 0.0 0.0 0.00 0.00 0.00 65 966.0
20260905181655 75 0 0.0 0.0 0.00 0.00 0.00 63 966.0
20260905181054 75 0 0.0 0.0 0.00 0.00 0.00 61 966.0
20260905180453 76 0 0.0 0.0 0.00 0.00 0.00 54 965.0
20260905175853 75 0 0.0 0.0 0.00 0.00 0.00 53 965.0
20260905175252 76 0 0.0 0.0 0.00 0.00 0.00 50 965.0
20260905174651 75 0 0.0 0.0 0.00 0.00 0.00 48 965.0
20260905174050 76 0 0.0 0.0 0.00 0.00 0.00 46 965.0
20260905173449 77 0 0.0 0.0 0.00 0.00 0.00 44 965.0
20260905172849 77 0 0.0 0.0 0.00 0.00 0.00 44 965.0
20260905172248 76 0 0.0 0.0 0.00 0.00 0.00 44 965.0
20260905171647 77 0 0.0 0.0 0.00 0.00 0.00 43 965.0
20260905171046 77 0 0.0 0.0 0.00 0.00 0.00 43 965.0
20260905170445 78 0 0.0 0.0 0.00 0.00 0.00 42 965.0
20260905165845 77 0 0.0 0.0 0.00 0.00 0.00 42 965.0
20260905165244 77 0 0.0 0.0 0.00 0.00 0.00 42 965.0
20260905164643 77 0 0.0 0.0 0.00 0.00 0.00 43 965.0
20260905164042 77 0 0.0 0.0 0.00 0.00 0.00 43 965.0
20260905163442 77 0 0.0 0.0 0.00 0.00 0.00 43 965.0
20260905162841 78 0 0.0 0.0 0.00 0.00 0.00 43 965.0
20260905162240 78 0 0.0 0.0 0.00 0.00 0.00 42 965.0
20260905161639 77 0 0.0 0.0 0.00 0.00 0.00 43 965.0
20260905161038 78 0 0.0 0.0 0.00 0.00 0.00 42 965.0
20260905160438 77 0 0.0 0.0 0.00 0.00 0.00 43 965.0
20260905155236 79 0 0.0 0.0 0.00 0.00 0.00 42 965.0
20260905154635 78 0 0.0 0.0 0.00 0.00 0.00 42 965.0
20260905154034 78 0 0.0 0.0 0.00 0.00 0.00 43 965.0
20260905153434 79 0 0.0 0.0 0.00 0.00 0.00 43 965.0
20260905152833 79 0 0.0 0.0 0.00 0.00 0.00 44 965.0
20260905152232 77 0 0.0 0.0 0.00 0.00 0.00 45 965.0
20260905151631 77 0 0.0 0.0 0.00 0.00 0.00 48 965.0
20260905151030 79 0 0.0 0.0 0.00 0.00 0.00 43 965.0
20260905150430 79 0 0.0 0.0 0.00 0.00 0.00 44 965.0
20260905145829 80 0 0.0 0.0 0.00 0.00 0.00 41 965.0
20260905145228 81 0 0.0 0.0 0.00 0.00 0.00 43 965.0
20260905144628 81 0 0.0 0.0 0.00 0.00 0.00 42 965.0
20260905144026 82 0 0.0 0.0 0.00 0.00 0.00 40 965.0
20260905143426 81 0 0.0 0.0 0.00 0.00 0.00 41 965.0
20260905142825 83 0 0.0 0.0 0.00 0.00 0.00 38 965.0
20260905142224 87 0 0.0 0.0 0.00 0.00 0.00 34 965.0
20260905141623 86 0 0.0 0.0 0.00 0.00 0.00 34 965.0
20260905141022 95 0 0.0 0.0 0.00 0.00 0.00 26 965.0
20260905140421 107 0 0.0 0.0 0.00 0.00 0.00 18 965.0
20260905135821 112 0 0.0 0.0 0.00 0.00 0.00 16 965.0
20260905135220 102 0 0.0 0.0 0.00 0.00 0.00 21 965.0
20260905134619 100 0 0.0 0.0 0.00 0.00 0.00 21 965.0
20260905134018 103 0 0.0 0.0 0.00 0.00 0.00 20 965.0
20260905133417 94 0 0.0 0.0 0.00 0.00 0.00 25 965.0
20260905132816 99 0 0.0 0.0 0.00 0.00 0.00 22 965.0
20260905132216 99 0 0.0 0.0 0.00 0.00 0.00 22 965.0
20260905131615 105 0 0.0 0.0 0.00 0.00 0.00 19 965.0
20260905131014 103 0 0.0 0.0 0.00 0.00 0.00 20 965.0
20260905130413 105 0 0.0 0.0 0.00 0.00 0.00 19 966.0
20260905125812 111 0 0.0 0.0 0.00 0.00 0.00 17 965.0
20260905125212 106 0 0.0 0.0 0.00 0.00 0.00 20 966.0
20260905124611 101 0 0.0 0.0 0.00 0.00 0.00 24 965.0
20260905124010 101 0 0.0 0.0 0.00 0.00 0.00 24 966.0
20260905123409 86 0 0.0 0.0 0.00 0.00 0.00 39 965.0
20260905122808 81 0 0.0 0.0 0.00 0.00 0.00 49 965.0
20260905122208 79 0 0.0 0.0 0.00 0.00 0.00 49 965.0
20260905121607 80 0 0.0 0.0 0.00 0.00 0.00 50 965.0
20260905121006 79 0 0.0 0.0 0.00 0.00 0.00 50 966.0
20260905120405 77 0 0.0 0.0 0.00 0.00 0.00 55 965.0
20260905115804 76 0 0.0 0.0 0.00 0.00 0.00 56 966.0
20260905115203 76 0 0.0 0.0 0.00 0.00 0.00 59 965.0
20260905114603 74 0 0.0 0.0 0.00 0.00 0.00 61 966.0
20260905114002 74 0 0.0 0.0 0.00 0.00 0.00 61 965.0
20260905113401 74 0 0.0 0.0 0.00 0.00 0.00 63 965.0
20260905112800 75 0 0.0 0.0 0.00 0.00 0.00 61 965.0
20260905112200 74 0 0.0 0.0 0.00 0.00 0.00 65 965.0
20260905111559 73 0 0.0 0.0 0.00 0.00 0.00 66 965.0
20260905110958 73 0 0.0 0.0 0.00 0.00 0.00 64 965.0
20260905110357 73 0 0.0 0.0 0.00 0.00 0.00 67 965.0
20260905105756 72 0 0.0 0.0 0.00 0.00 0.00 72 965.0
20260905105156 71 0 0.0 0.0 0.00 0.00 0.00 69 965.0
20260905104555 72 0 0.0 0.0 0.00 0.00 0.00 69 965.0
20260905103954 72 0 0.0 0.0 0.00 0.00 0.00 67 965.0
20260905103353 71 0 0.0 0.0 0.00 0.00 0.00 69 965.0
20260905102752 71 0 0.0 0.0 0.00 0.00 0.00 73 965.0
20260905102152 70 0 0.0 0.0 0.00 0.00 0.00 76 965.0
20260905101551 71 0 0.0 0.0 0.00 0.00 0.00 81 965.0
20260905100950 71 0 0.0 0.0 0.00 0.00 0.00 78 965.0
20260905100349 69 0 0.0 0.0 0.00 0.00 0.00 81 965.0
20260905095749 68 0 0.0 0.0 0.00 0.00 0.00 93 965.0
20260905095148 67 0 0.0 0.0 0.00 0.00 0.00 91 965.0
20260905094547 67 0 0.0 0.0 0.00 0.00 0.00 90 965.0
20260905093946 68 0 0.0 0.0 0.00 0.00 0.00 93 965.0
20260905093345 68 0 0.0 0.0 0.00 0.00 0.00 95 965.0
20260905092745 67 0 0.0 0.0 0.00 0.00 0.00 91 965.0
20260905092144 67 0 0.0 0.0 0.00 0.00 0.00 89 966.0
20260905091543 66 0 0.0 0.0 0.00 0.00 0.00 95 965.0
20260905090342 67 0 0.0 0.0 0.00 0.00 0.00 95 965.0
20260905085741 67 0 0.0 0.0 0.00 0.00 0.00 92 965.0
20260905085140 68 0 0.0 0.0 0.00 0.00 0.00 94 965.0
20260905084539 67 0 0.0 0.0 0.00 0.00 0.00 99 965.0
20260905083938 67 0 0.0 0.0 0.00 0.00 0.00 99 965.0
20260905083338 67 0 0.0 0.0 0.00 0.00 0.00 10 965.0
20260905082737 67 0 0.0 0.0 0.00 0.00 0.00 10 965.0
20260905082136 67 0 0.0 0.0 0.00 0.00 0.00 10 965.0
20260905081535 67 0 0.0 0.0 0.00 0.00 0.00 10 965.0
20260905080934 66 0 0.0 0.0 0.00 0.00 0.00 10 965.0
20260905080334 66 0 0.0 0.0 0.00 0.00 0.00 94 965.0
20260905075733 68 0 0.0 0.0 0.00 0.00 0.00 85 965.0
20260905075132 68 0 0.0 0.0 0.00 0.00 0.00 81 965.0
20260905074531 68 0 0.0 0.0 0.00 0.00 0.00 84 965.0
20260905073931 68 0 0.0 0.0 0.00 0.00 0.00 83 965.0
20260905073330 67 0 0.0 0.0 0.00 0.00 0.00 86 965.0
20260905072729 67 0 0.0 0.0 0.00 0.00 0.00 88 965.0
20260905072128 68 0 0.0 0.0 0.00 0.00 0.00 84 965.0
20260905071527 67 0 0.0 0.0 0.00 0.00 0.00 87 965.0
20260905070927 67 0 0.0 0.0 0.00 0.00 0.00 87 965.0
20260905070326 66 0 0.0 0.0 0.00 0.00 0.00 91 965.0
20260905065725 66 0 0.0 0.0 0.00 0.00 0.00 89 965.0
20260905065124 67 0 0.0 0.0 0.00 0.00 0.00 83 965.0
20260905064524 67 0 0.0 0.0 0.00 0.00 0.00 83 965.0
20260905063923 68 0 0.0 0.0 0.00 0.00 0.00 84 965.0
20260905063322 68 0 0.0 0.0 0.00 0.00 0.00 84 964.0
20260905062721 68 0 0.0 0.0 0.00 0.00 0.00 80 964.0
20260905062120 68 0 0.0 0.0 0.00 0.00 0.00 82 964.0
20260905061520 68 0 0.0 0.0 0.00 0.00 0.00 84 964.0
20260905060919 68 0 0.0 0.0 0.00 0.00 0.00 84 964.0
20260905060318 68 0 0.0 0.0 0.00 0.00 0.00 82 964.0
20260905055717 67 0 0.0 0.0 0.00 0.00 0.00 80 964.0
20260905055116 69 0 0.0 0.0 0.00 0.00 0.00 81 964.0
20260905054516 69 0 0.0 0.0 0.00 0.00 0.00 80 964.0
20260905053915 69 0 0.0 0.0 0.00 0.00 0.00 80 964.0
20260905053314 70 0 0.0 0.0 0.00 0.00 0.00 71 964.0
20260905052713 71 0 0.0 0.0 0.00 0.00 0.00 59 964.0
20260905052113 71 0 0.0 0.0 0.00 0.00 0.00 53 964.0
20260905051512 71 0 0.0 0.0 0.00 0.00 0.00 49 964.0
20260905050911 71 0 0.0 0.0 0.00 0.00 0.00 48 964.0
20260905050310 71 0 0.0 0.0 0.00 0.00 0.00 48 964.0
20260905045709 71 0 0.0 0.0 0.00 0.00 0.00 48 963.0
20260905045109 71 0 0.0 0.0 0.00 0.00 0.00 47 963.0
20260905044508 71 0 0.0 0.0 0.00 0.00 0.00 46 964.0
20260905043907 71 0 0.0 0.0 0.00 0.00 0.00 47 963.0
20260905043306 71 0 0.0 0.0 0.00 0.00 0.00 47 963.0
20260905042705 72 0 0.0 0.0 0.00 0.00 0.00 46 963.0
20260905042105 72 0 0.0 0.0 0.00 0.00 0.00 46 963.0
20260905041504 72 0 0.0 0.0 0.00 0.00 0.00 46 963.0
20260905040903 72 0 0.0 0.0 0.00 0.00 0.00 46 963.0
20260905040302 72 0 0.0 0.0 0.00 0.00 0.00 45 963.0
20260905035702 72 0 0.0 0.0 0.00 0.00 0.00 45 962.0
20260905035101 72 0 0.0 0.0 0.00 0.00 0.00 46 962.0
20260905034500 72 0 0.0 0.0 0.00 0.00 0.00 46 962.0
20260905033859 72 0 0.0 0.0 0.00 0.00 0.00 45 962.0
20260905033258 72 0 0.0 0.0 0.00 0.00 0.00 45 962.0
20260905032658 73 0 0.0 0.0 0.00 0.00 0.00 45 962.0
20260905032057 73 0 0.0 0.0 0.00 0.00 0.00 46 962.0
20260905031456 73 0 0.0 0.0 0.00 0.00 0.00 46 961.0
20260905030855 73 0 0.0 0.0 0.00 0.00 0.00 47 961.0
20260905030254 74 0 0.0 0.0 0.00 0.00 0.00 47 961.0
20260905025654 74 0 0.0 0.0 0.00 0.00 0.00 47 961.0
20260905025053 74 0 0.0 0.0 0.00 0.00 0.00 47 961.0
20260905024452 75 0 0.0 0.0 0.00 0.00 0.00 47 961.0
20260905023851 75 0 0.0 0.0 0.00 0.00 0.00 48 961.0
20260905023251 75 0 0.0 0.0 0.00 0.00 0.00 48 961.0
20260905022650 76 0 0.0 0.0 0.00 0.00 0.00 52 961.0
20260905022049 77 0 0.0 0.0 0.00 0.00 0.00 52 961.0
20260905021448 78 0 0.0 0.0 0.00 0.00 0.00 51 960.0
20260905020847 78 0 0.0 0.0 0.00 0.00 0.00 51 960.0
20260905020247 77 0 0.0 0.0 0.00 0.00 0.00 51 960.0
20260905015646 77 0 0.0 0.0 0.00 0.00 0.00 51 960.0
20260905015045 77 0 0.0 0.0 0.00 0.00 0.00 51 960.0
20260905014444 78 0 0.0 0.0 0.00 0.00 0.00 51 960.0
20260905013843 78 0 0.0 0.0 0.00 0.00 0.00 51 960.0
20260905013243 78 0 0.0 0.0 0.00 0.00 0.00 50 960.0
20260905012642 78 0 0.0 0.0 0.00 0.00 0.00 50 960.0
20260905012041 78 0 0.0 0.0 0.00 0.00 0.00 49 960.0
20260905011440 77 0 0.0 0.0 0.00 0.00 0.00 49 960.0
20260905010839 77 0 0.0 0.0 0.00 0.00 0.00 49 960.0
20260905010239 78 0 0.0 0.0 0.00 0.00 0.00 50 960.0
20260905005638 78 0 0.0 0.0 0.00 0.00 0.00 48 960.0
20260905005037 77 0 0.0 0.0 0.00 0.00 0.00 48 960.0
20260905004436 78 0 0.0 0.0 0.00 0.00 0.00 48 959.0
20260905003835 78 0 0.0 0.0 0.00 0.00 0.00 47 959.0
20260905003235 79 0 0.0 0.0 0.00 0.00 0.00 47 959.0
20260905002634 78 0 0.0 0.0 0.00 0.00 0.00 46 959.0
20260905001432 78 0 0.0 0.0 0.00 0.00 0.00 46 959.0
20260905000831 79 0 0.0 0.0 0.00 0.00 0.00 44 959.0
20260905000233 79 0 0.0 0.0 0.00 0.00 0.00 45 959.0
20260904235630 79 0 0.0 0.0 0.00 0.00 0.00 44 959.0
20260904235029 79 0 0.0 0.0 0.00 0.00 0.00 44 959.0
20260904234428 79 0 0.0 0.0 0.00 0.00 0.00 44 959.0
20260904233828 80 0 0.0 0.0 0.00 0.00 0.00 43 959.0
20260904233227 80 0 0.0 0.0 0.00 0.00 0.00 43 959.0
20260904232626 80 0 0.0 0.0 0.00 0.00 0.00 42 959.0
20260904232025 80 0 0.0 0.0 0.00 0.00 0.00 42 959.0
20260904231424 79 0 0.0 0.0 0.00 0.00 0.00 43 959.0
20260904230823 79 0 0.0 0.0 0.00 0.00 0.00 43 959.0
20260904225622 79 0 0.0 0.0 0.00 0.00 0.00 42 959.0
20260904225021 79 0 0.0 0.0 0.00 0.00 0.00 42 959.0
20260904224420 79 0 0.0 0.0 0.00 0.00 0.00 42 959.0
20260904223819 79 0 0.0 0.0 0.00 0.00 0.00 41 959.0
20260904223219 80 0 0.0 0.0 0.00 0.00 0.00 41 959.0
20260904222618 80 0 0.0 0.0 0.00 0.00 0.00 41 959.0
20260904222017 81 0 0.0 0.0 0.00 0.00 0.00 40 959.0
20260904221416 80 0 0.0 0.0 0.00 0.00 0.00 40 959.0
20260904220816 81 0 0.0 0.0 0.00 0.00 0.00 39 959.0
20260904220215 80 0 0.0 0.0 0.00 0.00 0.00 40 958.0
20260904215614 81 0 0.0 0.0 0.00 0.00 0.00 39 958.0
20260904215013 80 0 0.0 0.0 0.00 0.00 0.00 40 958.0
20260904214412 81 0 0.0 0.0 0.00 0.00 0.00 39 958.0
20260904213811 80 0 0.0 0.0 0.00 0.00 0.00 40 958.0
20260904213211 80 0 0.0 0.0 0.00 0.00 0.00 40 958.0
20260904212610 80 0 0.0 0.0 0.00 0.00 0.00 39 958.0
20260904212009 80 0 0.0 0.0 0.00 0.00 0.00 39 958.0
20260904211408 80 0 0.0 0.0 0.00 0.00 0.00 39 958.0
20260904210808 80 0 0.0 0.0 0.00 0.00 0.00 39 958.0
20260904205606 81 0 0.0 0.0 0.00 0.00 0.00 38 958.0
20260904205005 81 0 0.0 0.0 0.00 0.00 0.00 37 958.0
20260904204404 81 0 0.0 0.0 0.00 0.00 0.00 37 958.0
20260904203804 81 0 0.0 0.0 0.00 0.00 0.00 38 958.0
20260904203203 81 0 0.0 0.0 0.00 0.00 0.00 37 958.0
20260904202602 82 0 0.0 0.0 0.00 0.00 0.00 37 958.0
20260904202001 82 0 0.0 0.0 0.00 0.00 0.00 37 958.0
20260904201400 82 0 0.0 0.0 0.00 0.00 0.00 37 958.0
20260904200800 82 0 0.0 0.0 0.00 0.00 0.00 36 958.0
20260904200159 81 0 0.0 0.0 0.00 0.00 0.00 36 958.0